Date,TemperatureHighF,TemperatureAvgF,TemperatureLowF,DewpointHighF,DewpointAvgF,DewpointLowF,HumidityHigh,HumidityAvg,HumidityLow,PressureMaxIn,PressureMinIn,WindSpeedMaxMPH,WindSpeedAvgMPH,GustSpeedMaxMPH,PrecipitationSumIn
2013-9-1,85.9,68.0,54.1,59.0,54.6,51.0,90,66,35,29.82,29.74,12,2,13,0.00
2013-9-2,84.4,68.4,55.0,60.0,57.2,53.0,95,71,39,29.83,29.75,13,3,15,0.00
2013-9-3,85.6,66.4,53.2,55.0,53.0,50.0,92,67,29,29.87,29.79,7,2,13,0.00
2013-9-4,86.7,67.1,53.2,57.0,53.7,51.0,95,67,31,29.90,29.80,11,2,14,0.00
2013-9-5,87.3,67.1,52.4,55.0,50.4,44.0,95,62,22,29.88,29.81,9,3,15,0.00
2013-9-6,96.6,72.2,52.5,54.0,47.8,42.0,89,50,17,29.86,29.73,8,2,13,0.00
2013-9-7,98.0,76.5,60.5,49.0,44.6,31.0,56,36,11,29.75,29.68,8,2,13,0.00
2013-9-8,99.0,75.1,55.6,55.0,48.0,44.0,73,43,18,29.74,29.64,11,2,13,0.00
2013-9-9,101.6,77.5,60.6,53.0,48.2,45.0,66,40,16,29.67,29.56,9,2,13,0.00
2013-9-10,78.0,62.4,50.9,60.0,55.0,49.0,97,78,53,29.80,29.59,12,3,16,0.00
2013-9-11,69.2,61.6,57.9,60.0,57.9,57.0,96,88,71,29.90,29.79,8,2,11,0.02
2013-9-12,85.2,66.0,55.8,63.0,58.0,53.0,97,79,45,29.87,29.75,8,2,13,0.00
2013-9-13,89.1,66.4,49.6,60.0,54.1,49.0,97,70,31,29.78,29.62,7,2,11,0.01
2013-9-14,88.3,64.9,49.1,58.0,53.5,48.0,97,72,35,29.68,29.59,8,2,11,0.00
2013-9-15,83.4,63.4,49.0,57.0,53.6,48.0,97,74,40,29.74,29.64,9,2,13,0.00
2013-9-16,87.9,66.4,51.6,59.0,53.6,50.0,97,69,32,29.78,29.64,8,2,12,0.01
2013-9-17,80.5,64.0,50.8,53.0,50.2,47.0,92,64,33,29.77,29.66,14,4,22,0.00
2013-9-18,87.9,65.9,50.0,49.0,44.3,37.0,85,53,18,29.80,29.70,10,2,17,0.00
2013-9-19,92.6,69.8,52.2,49.0,40.2,27.0,71,41,14,29.74,29.63,8,2,14,0.00
2013-9-20,79.3,62.1,49.3,59.0,51.2,41.0,94,69,46,29.71,29.63,10,3,19,0.04
2013-9-21,68.8,59.2,51.4,61.0,55.3,49.0,97,87,56,29.78,29.66,12,2,16,0.40
2013-9-22,76.5,59.6,47.6,55.0,49.0,44.0,97,73,32,29.90,29.78,11,2,14,0.01
2013-9-23,85.6,64.9,50.8,58.0,53.0,48.0,93,69,31,29.91,29.80,8,2,12,0.00
2013-9-24,78.6,63.5,54.4,51.0,48.7,46.0,84,62,33,29.85,29.76,11,4,17,0.00
2013-9-25,72.5,58.3,48.5,47.0,43.1,38.0,86,61,29,29.81,29.70,12,4,21,0.00
2013-9-26,78.8,60.2,44.5,41.0,36.0,27.0,81,46,19,29.90,29.75,10,3,18,0.00
2013-9-27,81.8,64.6,51.5,39.0,33.6,29.0,54,34,16,29.98,29.90,9,3,14,0.00
2013-9-28,83.3,64.1,50.1,52.0,40.5,28.0,88,48,16,29.97,29.88,10,2,15,0.00
2013-9-29,70.6,60.4,53.2,62.0,57.0,51.0,97,89,70,29.97,29.93,7,2,14,0.11
2013-9-30,70.8,61.2,48.8,66.0,59.4,47.0,98,94,77,29.94,29.86,6,2,9,0.09